TimeMST,TemperatureF,Dew PointF,Humidity,Sea Level PressureIn,VisibilityMPH,Wind Direction,Wind SpeedMPH,Gust SpeedMPH,PrecipitationIn,Events,Conditions,WindDirDegrees,DateUTC
12:24 AM,23.0,18.0,81,30.03,3.0,North,15.0,-,0.00,Snow,Light Snow,360,2014-01-01 07:24:00
12:37 AM,23.0,18.0,81,30.03,2.5,North,9.2,24.2,0.01,Snow,Light Snow,350,2014-01-01 07:37:00
12:50 AM,23.0,19.4,86,30.02,4.0,North,12.7,-,0.01,Snow,Light Snow,360,2014-01-01 07:50:00
12:53 AM,23.0,19.0,85,29.89,5.0,North,12.7,-,0.01,Snow,Light Snow,350,2014-01-01 07:53:00
1:38 AM,24.1,19.0,81,30.00,1.8,NW,12.7,23.0,0.00,Snow,Light Snow,320,2014-01-01 08:38:00
1:53 AM,23.0,19.0,85,29.89,2.0,NNW,10.4,19.6,0.01,Snow,Light Snow,340,2014-01-01 08:53:00
2:02 AM,23.0,19.0,85,30.00,1.5,NNW,10.4,24.2,0.00,Snow,Light Snow,340,2014-01-01 09:02:00
2:24 AM,23.0,18.0,81,30.00,3.0,NW,13.8,20.7,0.00,Snow,Light Snow,320,2014-01-01 09:24:00
2:34 AM,23.0,18.0,81,29.99,2.5,NNW,11.5,-,0.00,Snow,Light Snow,330,2014-01-01 09:34:00
2:53 AM,21.9,19.0,89,29.86,1.2,NW,8.1,18.4,0.00,Snow,Light Snow,310,2014-01-01 09:53:00
3:11 AM,21.9,19.0,89,29.98,3.0,NNW,11.5,-,0.01,Snow,Light Snow,340,2014-01-01 10:11:00
3:24 AM,23.0,18.0,81,29.98,5.0,NW,12.7,17.3,0.01,Snow,Light Snow,310,2014-01-01 10:24:00
3:46 AM,23.0,18.0,81,29.99,2.5,NW,17.3,28.8,0.01,Snow,Light Snow,310,2014-01-01 10:46:00
3:53 AM,21.9,19.0,89,29.88,0.8,NNW,11.5,28.8,0.01,Snow,Light Snow,330,2014-01-01 10:53:00
4:06 AM,21.9,19.0,89,29.99,0.5,NW,11.5,-,0.01,Fog-Snow,Snow,320,2014-01-01 11:06:00
4:15 AM,21.0,19.0,92,30.00,0.5,NNW,11.5,-,0.02,Fog-Snow,Snow,330,2014-01-01 11:15:00
4:30 AM,21.0,19.0,92,30.00,0.2,WNW,17.3,25.3,0.04,Fog-Snow,Heavy Snow,300,2014-01-01 11:30:00
4:43 AM,21.0,18.0,88,30.01,0.2,NW,17.3,26.5,0.05,Fog-Snow,Heavy Snow,310,2014-01-01 11:43:00
4:50 AM,21.2,17.6,86,30.01,0.5,WNW,11.5,24.2,0.05,Fog-Snow,Snow,300,2014-01-01 11:50:00
4:53 AM,19.9,18.0,92,29.92,0.5,NW,12.7,-,0.06,Fog-Snow,Snow,310,2014-01-01 11:53:00
5:10 AM,19.9,18.0,92,30.02,1.0,NNW,12.7,-,0.03,Snow,Light Snow,330,2014-01-01 12:10:00
5:23 AM,19.9,15.1,81,30.01,1.5,WNW,20.7,35.7,0.03,Snow,Light Snow,300,2014-01-01 12:23:00
5:48 AM,19.4,15.8,86,30.03,0.8,NW,13.8,23.0,0.03,Snow,Light Snow,320,2014-01-01 12:48:00
5:53 AM,19.0,16.0,88,29.94,0.8,NW,11.5,23.0,0.04,Snow,Light Snow,310,2014-01-01 12:53:00
5:57 AM,19.0,16.0,88,30.03,1.0,WNW,10.4,21.9,0.00,Snow,Light Snow,300,2014-01-01 12:57:00
6:12 AM,19.9,15.1,81,30.04,3.0,WNW,16.1,21.9,0.00,Snow,Light Snow,300,2014-01-01 13:12:00
6:34 AM,19.0,14.0,81,30.05,1.8,WNW,17.3,23.0,0.00,Snow,Light Snow,300,2014-01-01 13:34:00
6:53 AM,19.0,15.1,85,29.99,1.2,WNW,15.0,25.3,0.00,Snow,Light Snow,300,2014-01-01 13:53:00
7:09 AM,18.0,14.0,84,30.06,2.0,WNW,10.4,-,0.01,Snow,Light Snow,300,2014-01-01 14:09:00
7:17 AM,18.0,14.0,84,30.07,1.2,NW,9.2,18.4,0.01,Snow,Light Snow,320,2014-01-01 14:17:00
7:45 AM,18.0,12.9,81,30.08,1.8,NW,8.1,18.4,0.02,Snow,Light Snow,320,2014-01-01 14:45:00
7:53 AM,18.0,14.0,84,30.03,1.2,NW,9.2,17.3,0.02,Snow,Light Snow,320,2014-01-01 14:53:00
8:05 AM,18.0,14.0,84,30.09,1.2,NW,11.5,-,0.00,Snow,Light Snow,320,2014-01-01 15:05:00
8:22 AM,17.1,14.0,88,30.10,0.5,NNW,9.2,-,0.00,Fog-Snow,Snow,330,2014-01-01 15:22:00
8:51 AM,17.6,14.0,86,30.12,0.2,NW,8.1,-,0.02,Fog-Snow,Snow,310,2014-01-01 15:51:00
8:53 AM,17.1,14.0,88,30.09,0.2,WNW,10.4,-,0.02,Fog-Snow,Snow,300,2014-01-01 15:53:00
9:27 AM,17.1,12.9,84,30.13,0.5,WNW,8.1,-,0.03,Fog-Snow,Snow,290,2014-01-01 16:27:00
9:42 AM,18.0,14.0,84,30.14,0.5,NW,9.2,-,0.03,Fog-Snow,Snow,310,2014-01-01 16:42:00
9:53 AM,18.0,12.0,78,30.09,1.0,WNW,13.8,20.7,0.03,Snow,Light Snow,300,2014-01-01 16:53:00
10:04 AM,17.1,12.0,81,30.14,1.0,WNW,12.7,19.6,0.00,Snow,Light Snow,290,2014-01-01 17:04:00
10:53 AM,19.0,10.0,68,30.09,2.5,NNW,6.9,23.0,0.00,Snow,Light Snow,330,2014-01-01 17:53:00
11:01 AM,19.0,10.0,68,30.15,5.0,WNW,12.7,17.3,0.00,Snow,Light Snow,300,2014-01-01 18:01:00
11:27 AM,19.0,10.0,68,30.14,9.0,NW,12.7,-,0.00,Snow,Light Snow,310,2014-01-01 18:27:00
11:53 AM,19.0,9.0,65,30.09,5.0,WNW,16.1,21.9,0.00,Snow,Light Snow,300,2014-01-01 18:53:00
12:16 PM,19.0,10.0,68,30.13,4.0,WNW,10.4,-,0.00,Snow,Light Snow,300,2014-01-01 19:16:00
12:53 PM,19.0,10.0,68,30.07,4.0,WNW,16.1,-,0.00,Snow,Light Snow,290,2014-01-01 19:53:00
1:03 PM,19.9,10.9,68,30.12,2.0,NNW,10.4,19.6,0.00,Snow,Light Snow,330,2014-01-01 20:03:00
1:12 PM,19.9,10.9,68,30.12,5.0,NW,8.1,-,0.00,Snow,Light Snow,320,2014-01-01 20:12:00
1:51 PM,19.4,10.4,68,30.12,8.0,NW,13.8,24.2,0.00,,Overcast,310,2014-01-01 20:51:00
1:53 PM,19.9,10.0,65,30.06,9.0,NW,15.0,24.2,0.00,,Overcast,310,2014-01-01 20:53:00
2:22 PM,19.0,10.9,71,30.13,1.8,NW,15.0,-,0.00,Snow,Light Snow,310,2014-01-01 21:22:00
2:36 PM,19.0,10.0,68,30.13,2.0,NW,12.7,25.3,0.00,Snow,Light Snow,310,2014-01-01 21:36:00
2:45 PM,18.0,10.9,74,30.14,1.2,WNW,18.4,26.5,0.00,Snow,Light Snow,300,2014-01-01 21:45:00
2:53 PM,18.0,10.9,74,30.11,1.0,NW,11.5,20.7,0.00,Snow,Light Snow,310,2014-01-01 21:53:00
3:11 PM,19.0,10.9,71,30.15,2.5,WNW,11.5,-,0.00,Snow,Light Snow,300,2014-01-01 22:11:00
3:18 PM,19.0,10.9,71,30.15,3.0,WNW,8.1,-,0.00,Snow,Light Snow,300,2014-01-01 22:18:00
3:30 PM,19.0,12.0,74,30.16,1.8,NW,10.4,17.3,0.00,Snow,Light Snow,310,2014-01-01 22:30:00
3:53 PM,18.0,12.0,78,30.14,1.0,NW,8.1,17.3,0.01,Snow,Light Snow,320,2014-01-01 22:53:00
4:38 PM,18.0,10.9,74,30.18,3.0,NW,10.4,20.7,0.00,Snow,Light Snow,310,2014-01-01 23:38:00
4:49 PM,17.6,10.4,73,30.19,2.5,NW,10.4,-,0.00,Snow,Light Snow,310,2014-01-01 23:49:00
4:53 PM,18.0,10.9,74,30.17,3.0,NW,9.2,-,0.00,Snow,Light Snow,320,2014-01-01 23:53:00
5:26 PM,18.0,9.0,68,30.20,10.0,NNW,6.9,-,0.00,,Overcast,340,2014-01-02 00:26:00
5:53 PM,17.1,7.0,65,30.21,10.0,NNW,10.4,19.6,0.00,,Overcast,330,2014-01-02 00:53:00
6:53 PM,16.0,6.1,65,30.23,10.0,NNW,13.8,21.9,N/A,,Overcast,330,2014-01-02 01:53:00
7:20 PM,15.1,5.0,64,30.24,10.0,NNW,13.8,20.7,N/A,,Mostly Cloudy,340,2014-01-02 02:20:00
7:31 PM,15.1,5.0,64,30.24,10.0,NW,15.0,21.9,N/A,,Scattered Clouds,310,2014-01-02 02:31:00
7:53 PM,15.1,3.9,61,30.26,10.0,WNW,15.0,21.9,N/A,,Clear,300,2014-01-02 02:53:00
8:53 PM,6.1,1.0,80,30.34,10.0,Calm,Calm,-,N/A,,Clear,0,2014-01-02 03:53:00
9:53 PM,1.9,-2.9,80,30.38,10.0,North,3.5,-,N/A,,Clear,350,2014-01-02 04:53:00
10:53 PM,9.0,-0.0,67,30.34,10.0,Variable,4.6,-,N/A,,Clear,0,2014-01-02 05:53:00
11:53 PM,10.0,1.0,67,30.34,10.0,Calm,Calm,-,N/A,,Clear,0,2014-01-02 06:53:00